CW4408 Weather Reports


Display with metric or nautical units.
time (UTC)temp
F
wind
direction
speed
MPH
gust
MPH
rain 1hr
in
rain 24hr
in
rain mn
in
humidity
%
barometer
mb
20191015211304 94 248 5.0 17.0 0.00 0.00 0.00 49 1010.2
20191015210803 94 172 6.0 17.0 0.00 0.00 0.00 49 1010.2
20191015210303 93 179 5.0 12.0 0.00 0.00 0.00 50 1010.3
20191015205804 93 174 6.0 10.0 0.00 0.00 0.00 50 1010.3
20191015205303 93 306 3.0 10.0 0.00 0.00 0.00 50 1010.4
20191015204803 94 269 5.0 10.0 0.00 0.00 0.00 49 1010.5
20191015204304 94 226 3.0 7.0 0.00 0.00 0.00 49 1010.5
20191015203803 94 218 3.0 12.0 0.00 0.00 0.00 49 1010.6
20191015203303 94 209 5.0 12.0 0.00 0.00 0.00 49 1010.6
20191015202803 94 231 5.0 12.0 0.00 0.00 0.00 51 1010.6
20191015202303 93 161 6.0 12.0 0.00 0.00 0.00 50 1010.7
20191015201804 93 198 5.0 12.0 0.00 0.00 0.00 50 1010.7
20191015201303 93 218 5.0 10.0 0.00 0.00 0.00 51 1010.8
20191015200804 92 255 2.0 10.0 0.00 0.00 0.00 50 1010.8
20191015200303 93 263 3.0 8.0 0.00 0.00 0.00 51 1010.9
20191015195803 92 231 3.0 8.0 0.00 0.00 0.00 53 1010.9
20191015195303 92 183 5.0 8.0 0.00 0.00 0.00 52 1010.9
20191015194803 92 229 3.0 10.0 0.00 0.00 0.00 54 1011.0
20191015194304 93 165 5.0 10.0 0.00 0.00 0.00 52 1011.1
20191015193803 92 200 3.0 14.0 0.00 0.00 0.00 53 1011.2
20191015193303 91 247 6.0 14.0 0.00 0.00 0.00 54 1011.4
20191015192803 91 193 5.0 10.0 0.00 0.00 0.00 56 1011.4
20191015192303 90 265 5.0 12.0 0.00 0.00 0.00 56 1011.6
20191015191803 90 247 6.0 12.0 0.00 0.00 0.00 57 1011.8
20191015191304 89 285 3.0 10.0 0.00 0.00 0.00 58 1011.8
20191015190803 90 280 5.0 10.0 0.00 0.00 0.00 58 1012.0
20191015190303 90 248 6.0 12.0 0.00 0.00 0.00 58 1012.0
20191015185803 89 217 5.0 12.0 0.00 0.00 0.00 60 1012.2
20191015185303 88 244 5.0 9.0 0.00 0.00 0.00 62 1012.3
20191015184804 88 282 3.0 9.0 0.00 0.00 0.00 62 1012.4
20191015184303 88 278 5.0 9.0 0.00 0.00 0.00 61 1012.6
20191015183804 88 256 2.0 12.0 0.00 0.00 0.00 61 1012.7
20191015183303 88 271 5.0 12.0 0.00 0.00 0.00 61 1012.7
20191015182803 89 258 5.0 10.0 0.00 0.00 0.00 59 1012.8
20191015182304 90 256 5.0 10.0 0.00 0.00 0.00 59 1012.8
20191015181803 90 214 5.0 10.0 0.00 0.00 0.00 59 1012.9
20191015181304 90 214 4.0 9.0 0.00 0.00 0.00 59 1013.0
20191015180803 89 222 3.0 9.0 0.00 0.00 0.00 59 1013.1
20191015180304 89 217 5.0 9.0 0.00 0.00 0.00 61 1013.2
20191015175804 88 200 3.0 12.0 0.00 0.00 0.00 63 1013.3
20191015175303 88 221 3.0 12.0 0.00 0.00 0.00 63 1013.3
20191015174803 88 252 7.0 12.0 0.00 0.00 0.00 61 1013.4
20191015174304 88 216 4.0 10.0 0.00 0.00 0.00 64 1013.5
20191015173803 87 253 3.0 10.0 0.00 0.00 0.00 64 1013.4
20191015173304 87 244 4.0 12.0 0.00 0.00 0.00 64 1013.5
20191015172803 87 253 5.0 12.0 0.00 0.00 0.00 64 1013.6
20191015172303 88 263 6.0 12.0 0.00 0.00 0.00 63 1013.7
20191015171803 89 226 5.0 12.0 0.00 0.00 0.00 62 1013.7
20191015171303 88 201 6.0 13.0 0.00 0.00 0.00 62 1013.7
20191015170803 88 250 6.0 13.0 0.00 0.00 0.00 65 1013.6
20191015170304 89 262 6.0 13.0 0.00 0.00 0.00 62 1013.6
20191015165803 89 189 5.0 12.0 0.00 0.00 0.00 63 1013.6
20191015165304 88 191 6.0 13.0 0.00 0.00 0.00 65 1013.6
20191015164803 88 189 7.0 13.0 0.00 0.00 0.00 65 1013.7
20191015164303 87 188 6.0 12.0 0.00 0.00 0.00 66 1013.8
20191015163803 86 224 5.0 12.0 0.00 0.00 0.00 67 1013.9
20191015163304 86 223 5.0 12.0 0.00 0.00 0.00 66 1013.8
20191015162803 86 226 5.0 14.0 0.00 0.00 0.00 68 1013.8
20191015162303 85 230 6.0 14.0 0.00 0.00 0.00 68 1013.8
20191015161804 84 186 6.0 14.0 0.00 0.00 0.00 72 1013.7
20191015161303 83 203 5.0 10.0 0.00 0.00 0.00 73 1013.8
20191015160803 83 210 5.0 9.0 0.00 0.00 0.00 73 1013.8
20191015160304 83 222 6.0 9.0 0.00 0.00 0.00 73 1013.9
20191015155803 83 207 5.0 10.0 0.00 0.00 0.00 74 1013.8
20191015155304 83 223 5.0 10.0 0.00 0.00 0.00 74 1013.9
20191015154803 83 205 5.0 12.0 0.00 0.00 0.00 74 1013.8
20191015154303 83 219 6.0 14.0 0.00 0.00 0.00 75 1013.9
20191015153803 83 188 8.0 14.0 0.00 0.00 0.00 75 1013.9
20191015153303 83 199 8.0 15.0 0.00 0.00 0.00 76 1013.9
20191015152804 82 190 8.0 15.0 0.00 0.00 0.00 77 1013.8
20191015152303 82 185 7.0 15.0 0.00 0.00 0.00 78 1013.8
20191015151804 81 198 5.0 12.0 0.00 0.00 0.00 79 1013.9
20191015151303 81 199 7.0 12.0 0.00 0.00 0.00 79 1014.0
20191015150803 81 210 6.0 14.0 0.00 0.00 0.00 80 1014.0
20191015150303 81 204 6.0 14.0 0.00 0.00 0.00 80 1014.1
20191015145804 81 195 6.0 13.0 0.00 0.00 0.00 81 1014.1
20191015145304 81 204 6.0 14.0 0.00 0.00 0.00 81 1014.0
20191015144804 80 178 7.0 14.0 0.00 0.00 0.00 83 1014.0
20191015144303 80 192 4.0 8.0 0.00 0.00 0.00 84 1014.1
20191015143803 79 185 3.0 12.0 0.00 0.00 0.00 85 1014.1
20191015143304 79 200 6.0 12.0 0.00 0.00 0.00 85 1014.1
20191015142803 79 206 6.0 12.0 0.00 0.00 0.00 85 1014.1
20191015142303 79 193 3.0 12.0 0.00 0.00 0.00 85 1014.1
20191015141804 79 196 7.0 12.0 0.00 0.00 0.00 85 1014.0
20191015141303 79 197 5.0 12.0 0.00 0.00 0.00 86 1013.9
20191015140804 79 198 7.0 13.0 0.00 0.00 0.00 86 1013.8
20191015140303 79 189 7.0 13.0 0.00 0.00 0.00 86 1013.7
20191015135803 78 193 6.0 13.0 0.00 0.00 0.00 86 1013.6
20191015135304 78 190 7.0 13.0 0.00 0.00 0.00 86 1013.5
20191015134803 78 194 7.0 13.0 0.00 0.00 0.00 87 1013.4
20191015134304 78 191 7.0 12.0 0.00 0.00 0.00 87 1013.4
20191015133803 78 191 6.0 9.0 0.00 0.00 0.00 87 1013.4
20191015133303 78 191 5.0 10.0 0.00 0.00 0.00 87 1013.5
20191015132803 78 195 5.0 10.0 0.00 0.00 0.00 87 1013.5
20191015132304 78 194 6.0 10.0 0.00 0.00 0.00 87 1013.6
20191015131803 78 197 6.0 10.0 0.00 0.00 0.00 87 1013.6
20191015131304 78 198 5.0 10.0 0.00 0.00 0.00 87 1013.6
20191015130803 78 198 6.0 12.0 0.00 0.00 0.00 87 1013.6
20191015130303 78 195 6.0 12.0 0.00 0.00 0.00 87 1013.6
20191015125804 78 184 7.0 12.0 0.00 0.00 0.00 87 1013.5
20191015125303 78 184 6.0 12.0 0.00 0.00 0.00 87 1013.5
20191015124803 78 192 6.0 13.0 0.00 0.00 0.00 87 1013.5
20191015124303 78 196 7.0 13.0 0.00 0.00 0.00 87 1013.5
20191015123803 78 194 6.0 12.0 0.00 0.00 0.00 87 1013.5
20191015123303 78 191 6.0 10.0 0.00 0.00 0.00 87 1013.5
20191015122804 78 181 6.0 12.0 0.00 0.00 0.00 88 1013.5
20191015122303 78 190 7.0 12.0 0.00 0.00 0.00 88 1013.4
20191015121803 78 192 7.0 12.0 0.00 0.00 0.00 88 1013.3
20191015121303 77 182 6.0 12.0 0.00 0.00 0.00 88 1013.2
20191015120803 77 192 7.0 12.0 0.00 0.00 0.00 88 1013.3
20191015120303 77 191 5.0 10.0 0.00 0.00 0.00 88 1013.3
20191015115803 77 189 5.0 10.0 0.00 0.00 0.00 88 1013.3
20191015115303 77 189 6.0 10.0 0.00 0.00 0.00 88 1013.3
20191015114803 77 190 5.0 9.0 0.00 0.00 0.00 88 1013.3
20191015114303 77 187 5.0 9.0 0.00 0.00 0.00 88 1013.3
20191015113803 77 183 5.0 8.0 0.00 0.00 0.00 88 1013.3
20191015113303 77 187 5.0 8.0 0.00 0.00 0.00 88 1013.4
20191015112803 77 193 5.0 8.0 0.00 0.00 0.00 88 1013.5
20191015112305 77 192 3.0 10.0 0.00 0.00 0.00 88 1013.4
20191015111803 77 188 5.0 10.0 0.00 0.00 0.00 88 1013.3
20191015111303 77 190 6.0 10.0 0.00 0.00 0.00 88 1013.4
20191015110803 77 196 6.0 10.0 0.00 0.00 0.00 89 1013.5
20191015110304 77 187 6.0 9.0 0.00 0.00 0.00 89 1013.3
20191015105803 77 192 5.0 10.0 0.00 0.00 0.00 89 1013.3
20191015105305 77 188 5.0 10.0 0.00 0.00 0.00 89 1013.3
20191015104803 77 190 5.0 8.0 0.00 0.00 0.00 89 1013.3
20191015104303 77 197 5.0 10.0 0.00 0.00 0.00 89 1013.3
20191015103804 77 197 5.0 10.0 0.00 0.00 0.00 89 1013.2
20191015103303 77 192 6.0 10.0 0.00 0.00 0.00 89 1013.1
20191015102803 77 193 4.0 10.0 0.00 0.00 0.00 89 1013.1
20191015102305 77 191 6.0 10.0 0.00 0.00 0.00 89 1013.1
20191015101804 77 193 6.0 10.0 0.00 0.00 0.00 89 1013.0
20191015101303 77 187 6.0 12.0 0.00 0.00 0.00 89 1013.0
20191015100803 78 187 7.0 12.0 0.00 0.00 0.00 89 1012.9
20191015100303 78 190 7.0 12.0 0.00 0.00 0.00 89 1013.0
20191015095803 78 192 7.0 14.0 0.00 0.00 0.00 89 1013.0
20191015095305 78 195 6.0 14.0 0.00 0.00 0.00 88 1013.0
20191015094803 78 189 5.0 14.0 0.00 0.00 0.00 88 1012.9
20191015094303 78 192 7.0 16.0 0.00 0.00 0.00 88 1012.9
20191015093803 78 180 9.0 16.0 0.00 0.00 0.00 88 1012.9
20191015093303 78 188 9.0 16.0 0.00 0.00 0.00 88 1012.9
20191015092803 78 184 9.0 16.0 0.00 0.00 0.00 89 1012.8
20191015092305 78 196 7.0 12.0 0.00 0.00 0.00 89 1012.9
20191015091803 78 187 6.0 12.0 0.00 0.00 0.00 89 1012.9
20191015091304 78 190 6.0 12.0 0.00 0.00 0.00 89 1012.9
20191015090803 78 189 7.0 12.0 0.00 0.00 0.00 89 1012.9
20191015090304 77 183 6.0 10.0 0.00 0.00 0.00 89 1012.9
20191015085803 77 191 6.0 14.0 0.00 0.00 0.00 89 1012.9
20191015085305 77 178 7.0 14.0 0.00 0.00 0.00 89 1012.8
20191015084803 77 183 7.0 14.0 0.00 0.00 0.00 89 1012.9
20191015084304 77 188 10.0 14.0 0.00 0.00 0.00 89 1012.9
20191015083803 77 182 7.0 13.0 0.00 0.00 0.00 89 1013.0
20191015083304 77 190 8.0 13.0 0.00 0.00 0.00 89 1013.0
20191015082803 77 184 9.0 13.0 0.00 0.00 0.00 89 1013.0
20191015082305 77 183 7.0 13.0 0.00 0.00 0.00 89 1013.0
20191015081803 77 183 7.0 12.0 0.00 0.00 0.00 89 1013.1
20191015081304 77 180 7.0 12.0 0.00 0.00 0.00 89 1013.1
20191015080804 77 187 7.0 12.0 0.00 0.00 0.00 89 1013.2
20191015080303 77 187 6.0 10.0 0.00 0.00 0.00 89 1013.3
20191015075804 77 187 6.0 10.0 0.00 0.00 0.00 89 1013.2
20191015075305 77 190 6.0 12.0 0.00 0.00 0.00 89 1013.2
20191015074803 77 183 6.0 14.0 0.00 0.00 0.00 89 1013.2
20191015074304 77 178 8.0 14.0 0.00 0.00 0.00 89 1013.0
20191015073803 77 177 6.0 14.0 0.00 0.00 0.00 89 1013.0
20191015073304 77 180 9.0 14.0 0.00 0.00 0.00 89 1012.9
20191015072803 77 181 6.0 12.0 0.00 0.00 0.00 89 1013.0
20191015072305 77 179 7.0 12.0 0.00 0.00 0.00 89 1013.0
20191015071804 77 181 6.0 12.0 0.00 0.00 0.00 89 1013.1
20191015071303 77 175 8.0 13.0 0.00 0.00 0.00 89 1013.2
20191015070804 77 178 8.0 13.0 0.00 0.00 0.00 89 1013.1
20191015070304 77 175 9.0 15.0 0.00 0.00 0.00 89 1013.1
20191015065803 77 182 9.0 15.0 0.00 0.00 0.00 89 1013.1
20191015065304 77 175 8.0 14.0 0.00 0.00 0.00 89 1013.1
20191015064803 77 183 10.0 14.0 0.00 0.00 0.00 89 1013.1
20191015064303 77 178 9.0 14.0 0.00 0.00 0.00 89 1013.1
20191015063804 77 180 8.0 14.0 0.00 0.00 0.00 88 1013.1
20191015063303 77 182 9.0 14.0 0.00 0.00 0.00 88 1013.1
20191015062804 77 175 9.0 14.0 0.00 0.00 0.00 88 1013.2
20191015062303 76 177 8.0 14.0 0.00 0.00 0.00 88 1013.3
20191015061803 76 177 9.0 14.0 0.00 0.00 0.00 88 1013.3
20191015061304 76 172 9.0 13.0 0.00 0.00 0.00 87 1013.3
20191015060803 76 179 7.0 12.0 0.00 0.00 0.00 86 1013.4
20191015060304 76 180 7.0 16.0 0.00 0.00 0.00 86 1013.4
20191015055803 77 178 8.0 16.0 0.00 0.00 0.00 86 1013.3
20191015055304 77 177 8.0 13.0 0.00 0.00 0.00 85 1013.4
20191015054804 77 176 7.0 12.0 0.00 0.00 0.00 84 1013.5
20191015054303 77 176 8.0 16.0 0.00 0.00 0.00 84 1013.6
20191015053804 77 173 9.0 16.0 0.00 0.00 0.00 83 1013.5
20191015053303 77 172 9.0 15.0 0.00 0.00 0.00 83 1013.5
20191015052804 77 175 8.0 14.0 0.00 0.00 0.00 82 1013.6
20191015052303 78 176 9.0 14.0 0.00 0.00 0.00 82 1013.6
20191015051804 78 176 9.0 13.0 0.00 0.00 0.00 81 1013.7
20191015051303 78 175 8.0 15.0 0.00 0.00 0.00 80 1013.6
20191015050806 78 175 9.0 15.0 0.00 0.00 0.00 80 1013.6
20191015050304 78 176 9.0 15.0 0.00 0.00 0.00 79 1013.6
20191015045803 78 174 10.0 15.0 0.00 0.00 0.00 79 1013.7
20191015045303 78 176 9.0 14.0 0.00 0.00 0.00 78 1013.8
20191015044803 78 176 10.0 15.0 0.00 0.00 0.00 78 1013.8
20191015044304 78 174 10.0 15.0 0.00 0.00 0.00 77 1013.8
20191015043803 78 169 9.0 13.0 0.00 0.00 0.00 77 1013.8
20191015043303 78 173 8.0 10.0 0.00 0.00 0.00 76 1013.8
20191015042804 79 169 7.0 10.0 0.00 0.00 0.00 75 1013.9
20191015042303 79 167 6.0 12.0 0.00 0.00 0.00 74 1013.8
20191015041803 79 171 7.0 12.0 0.00 0.00 0.00 74 1013.8
20191015041304 80 171 9.0 18.0 0.00 0.00 0.00 73 1013.7
20191015040803 80 175 10.0 18.0 0.00 0.00 0.00 73 1013.7
20191015040303 80 173 11.0 17.0 0.00 0.00 0.00 73 1013.6
20191015035803 80 170 12.0 16.0 0.00 0.00 0.00 73 1013.6
20191015035303 80 183 11.0 15.0 0.00 0.00 0.00 73 1013.6
20191015034803 81 169 8.0 14.0 0.00 0.00 0.00 72 1013.7
20191015034303 81 168 8.0 13.0 0.00 0.00 0.00 72 1013.6
20191015033803 81 170 7.0 14.0 0.00 0.00 0.00 71 1013.6
20191015033304 81 173 7.0 15.0 0.00 0.00 0.00 71 1013.6
20191015032803 81 169 10.0 17.0 0.00 0.00 0.00 71 1013.6
20191015032304 81 169 10.0 17.0 0.00 0.00 0.00 70 1013.5
20191015031803 82 168 9.0 14.0 0.00 0.00 0.00 70 1013.6
20191015031303 82 172 9.0 14.0 0.00 0.00 0.00 70 1013.6
20191015030803 82 170 7.0 12.0 0.00 0.00 0.00 69 1013.6
20191015030303 82 170 6.0 12.0 0.00 0.00 0.00 68 1013.5
20191015025803 82 162 6.0 9.0 0.00 0.00 0.00 67 1013.5
20191015025303 82 162 5.0 8.0 0.00 0.00 0.00 66 1013.5
20191015024803 82 166 6.0 9.0 0.00 0.00 0.00 67 1013.5
20191015024303 82 170 6.0 9.0 0.00 0.00 0.00 68 1013.5
20191015023803 82 158 4.0 12.0 0.00 0.00 0.00 69 1013.4
20191015023305 81 156 5.0 12.0 0.00 0.00 0.00 71 1013.3
20191015022804 81 127 3.0 5.0 0.00 0.00 0.00 73 1013.3
20191015022303 81 126 1.0 3.0 0.00 0.00 0.00 72 1013.5
20191015021804 82 116 2.0 3.0 0.00 0.00 0.00 72 1013.4
20191015021303 82 98 2.0 3.0 0.00 0.00 0.00 72 1013.3
20191015020804 82 80 2.0 3.0 0.00 0.00 0.00 71 1013.2
20191015020303 82 80 1.0 3.0 0.00 0.00 0.00 71 1013.1
20191015015804 83 80 2.0 3.0 0.00 0.00 0.00 70 1013.1
20191015015303 83 80 1.0 3.0 0.00 0.00 0.00 70 1013.1
20191015014804 83 80 1.0 5.0 0.00 0.00 0.00 69 1013.0
20191015014303 83 80 2.0 5.0 0.00 0.00 0.00 69 1013.1
20191015013804 83 57 1.0 3.0 0.00 0.00 0.00 68 1013.1
20191015013303 83 57 1.0 3.0 0.00 0.00 0.00 68 1013.1
20191015012804 84 57 1.0 3.0 0.00 0.00 0.00 67 1013.1
20191015012303 84 57 1.0 5.0 0.00 0.00 0.00 67 1013.0
20191015011803 84 82 3.0 6.0 0.00 0.00 0.00 66 1012.9
20191015011304 84 72 3.0 7.0 0.00 0.00 0.00 65 1012.8
20191015010803 84 61 3.0 7.0 0.00 0.00 0.00 64 1012.7
20191015010303 84 188 1.0 3.0 0.00 0.00 0.00 62 1012.5
20191015005803 84 188 1.0 3.0 0.00 0.00 0.00 62 1012.5
20191015005304 85 188 1.0 3.0 0.00 0.00 0.00 61 1012.4
20191015004803 85 188 1.0 2.0 0.00 0.00 0.00 60 1012.4
20191015004304 85 188 1.0 2.0 0.00 0.00 0.00 60 1012.4
20191015003804 85 188 0.0 1.0 0.00 0.00 0.00 60 1012.4
20191015003303 85 188 0.0 1.0 0.00 0.00 0.00 59 1012.5
20191015002804 86 188 0.0 2.0 0.00 0.00 0.00 59 1012.4
20191015002303 86 188 1.0 2.0 0.00 0.00 0.00 59 1012.4
20191015001803 86 188 1.0 2.0 0.00 0.00 0.00 58 1012.3
20191015001304 87 188 1.0 2.0 0.00 0.00 0.00 57 1012.3
20191015000804 87 188 1.0 2.0 0.00 0.00 0.00 57 1012.2
20191015000304 87 188 1.0 1.0 0.00 0.00 0.00 56 1012.1
20191014235803 88 188 0.0 0.0 0.00 0.00 0.00 55 1012.1
20191014235303 88 188 0.0 1.0 0.00 0.00 0.00 55 1012.2
20191014234803 88 188 1.0 1.0 0.00 0.00 0.00 54 1012.2
20191014234303 89 188 0.0 1.0 0.00 0.00 0.00 54 1012.2
20191014233804 89 188 0.0 2.0 0.00 0.00 0.00 53 1012.1
20191014233303 89 188 1.0 3.0 0.00 0.00 0.00 53 1012.1
20191014232803 89 188 1.0 3.0 0.00 0.00 0.00 53 1012.1
20191014232304 89 188 0.0 3.0 0.00 0.00 0.00 53 1012.2
20191014231803 89 188 2.0 5.0 0.00 0.00 0.00 52 1012.1
20191014231303 90 188 3.0 5.0 0.00 0.00 0.00 52 1012.1
20191014230803 90 188 3.0 5.0 0.00 0.00 0.00 51 1012.1
20191014230304 90 183 3.0 5.0 0.00 0.00 0.00 51 1012.1
20191014225803 90 191 3.0 5.0 0.00 0.00 0.00 51 1012.1
20191014225304 90 151 3.0 9.0 0.00 0.00 0.00 51 1012.1
20191014224804 91 153 3.0 9.0 0.00 0.00 0.00 50 1012.0
20191014224303 91 195 3.0 8.0 0.00 0.00 0.00 50 1012.0
20191014223803 91 194 4.0 10.0 0.00 0.00 0.00 51 1012.0
20191014223304 90 191 6.0 10.0 0.00 0.00 0.00 51 1012.0
20191014222803 90 185 5.0 8.0 0.00 0.00 0.00 51 1012.0
20191014222303 90 180 4.0 7.0 0.00 0.00 0.00 53 1012.0
20191014221804 90 198 5.0 7.0 0.00 0.00 0.00 53 1012.1
20191014221303 89 189 5.0 7.0 0.00 0.00 0.00 53 1012.1
20191014220803 89 224 3.0 8.0 0.00 0.00 0.00 54 1012.1
20191014220303 89 200 4.0 10.0 0.00 0.00 0.00 54 1012.1
20191014215803 89 193 4.0 10.0 0.00 0.00 0.00 55 1012.1
20191014215303 89 167 2.0 5.0 0.00 0.00 0.00 55 1012.0
20191014214804 89 254 1.0 5.0 0.00 0.00 0.00 56 1012.1
20191014214304 89 254 2.0 5.0 0.00 0.00 0.00 56 1012.3
20191014213804 89 241 2.0 8.0 0.00 0.00 0.00 56 1012.2
20191014213304 89 217 4.0 8.0 0.00 0.00 0.00 56 1012.2
20191014212803 89 161 3.0 6.0 0.00 0.00 0.00 55 1012.2
20191014212303 89 221 2.0 5.0 0.00 0.00 0.00 55 1012.2
20191014211804 89 236 2.0 5.0 0.00 0.00 0.00 56 1012.2